Regional Weather Roundup
Issued by NWS

Home | Current Version | Previous Version | Graphics & Text | Print | Product List | Glossary On
Versions: 1 2 3 4 5 6 7 8 9 10 11 12 13 14 15 16 17 18 19 20 21 22 23 24 25 26 27 28 29 30 31 32 33 34 35 36 37 38 39 40 41 42 43 44 45 46 47 48 49 50
000
ASUS43 KIND 262159
RWRIN

WEATHER ROUNDUP FOR INDIANA
NATIONAL WEATHER SERVICE INDIANAPOLIS IN
600 PM EDT THU MAR 26 2015

NOTE: "FAIR" INDICATES FEW OR NO CLOUDS BELOW 12,000 FEET WITH NO
SIGNIFICANT WEATHER AND/OR OBSTRUCTIONS TO VISIBILITY.

* - STATION DOES NOT REPORT WEATHER SUCH AS PRECIPITATION OR FOG.

+ - STATION NOT QUALITY CONTROLLED BY THE NATIONAL WEATHER SERVICE.
    USE DATA WITH CAUTION...ESPECIALLY DEWPOINT AND RELATIVE
    HUMIDITY OBSERVATIONS.

INZ001>003-010>013-019-020-262300-
NORTHWEST INDIANA

CITY           SKY/WX    TMP DP  RH WIND       PRES   REMARKS
GARY /AIRPORT/ PTSUNNY   39  19  45 NE8       29.99R

$$

LMZ046-743>745-262300-
SOUTHERN LAKE MICHIGAN

STATION/POSITION TIME  TEMP WIND        PRES
                       AIR  DIR/SP/G
                 (UTC) (F)  (DEG/KT/KT) (MB)
BURNS HARBOR     2100   36   40/  5/  6 1015.9R
MICHIGAN CITY    2100   37  320/  4/  4   N/A

$$

INZ004-005-014>016-021>024-262300-
NORTH CENTRAL INDIANA

CITY           SKY/WX    TMP DP  RH WIND       PRES   REMARKS
ELKHART        CLOUDY    39  18  41 NW12      29.97R
GOSHEN         PTSUNNY   40  22  48 NW18G24   29.95R
SOUTH BEND     CLOUDY    39  22  50 NW13      29.98R

$$

INZ006>009-017-018-025>027-262300-
NORTHEAST INDIANA

CITY           SKY/WX    TMP DP  RH WIND       PRES   REMARKS
ANGOLA *+      CLOUDY    39  25  56 NW13      29.91R
FORT WAYNE     CLOUDY    41  28  60 NW15      29.92R

$$

INZ028-029-035-036-043>045-051>053-262300-
WEST CENTRAL INDIANA

CITY           SKY/WX    TMP DP  RH WIND       PRES   REMARKS
CRAWFORDSVL +  CLOUDY    42  28  57 MISG      29.96S
GREENCASTLE +  CLOUDY    43  28  56 NW8       29.96F
LAFAYETTE      PTSUNNY   44  28  53 NW13G21   29.96R
TERRE HAUTE    CLOUDY    46  33  60 N13       29.97F

$$

INZ030>032-037>040-046>048-054>057-064-065-262300-
CENTRAL INDIANA

CITY           SKY/WX    TMP DP  RH WIND       PRES   REMARKS
GREENWOOD *+   CLOUDY    43  30  61 NW13G18   29.95S
INDIANAPOLIS   CLOUDY    43  31  62 NW15      29.93F
-EAGLE CREEK   CLOUDY    43  31  62 NW13      29.94S
KOKOMO *+        N/A     45  34  65 W15       29.93S
MT COMFORT *+  CLOUDY    43  25  49 NW14      29.94S
SHELBYVILLE    CLOUDY    44  33  65 NW13      29.93S

$$

INZ033-034-041-042-049-050-058-059-262300-
EAST CENTRAL INDIANA

CITY           SKY/WX    TMP DP  RH WIND       PRES   REMARKS
MUNCIE         CLOUDY    42  32  67 NW12      29.92F

$$

INZ060-061-067>069-081>083-085>088-262300-
SOUTHWEST INDIANA

CITY           SKY/WX    TMP DP  RH WIND       PRES   REMARKS
EVANSVILLE     CLOUDY    44  34  67 N12       29.99F
HUNTINGBURG *+ CLOUDY    43  34  70 NW12      29.97F

$$

INZ062-063-066-070>080-084-089>092-262300-
SOUTH CENTRAL AND SOUTHEAST INDIANA

CITY           SKY/WX    TMP DP  RH WIND       PRES   REMARKS
BLOOMINGTON    CLOUDY    43  33  68 W12       29.95S
SEYMOUR +      CLOUDY    45  36  70 NW7       29.95S

$$



USA.gov is the U.S. government's official web portal to all federal, state and local government web resources and services.